Regional Weather Roundup
Issued by NWS

Home | Current Version | Previous Version | Graphics & Text | Print | Product List | Glossary On
Versions: 1 2 3 4 5 6 7 8 9 10 11 12 13 14 15 16 17 18 19 20 21 22 23 24 25 26 27 28 29 30 31 32 33 34 35 36 37 38 39 40 41 42 43 44 45 46 47 48 49 50
000
ASUS43 KDTX 081210
RWRMI
MICHIGAN HOURLY REGIONAL WEATHER ROUNDUP
NATIONAL WEATHER SERVICE DETROIT/PONTIAC MI
ISSUED BY NATIONAL WEATHER SERVICE GRAND RAPIDS MI
700 AM EST THU DEC 08 2016

NOTE: "FAIR" INDICATES FEW OR NO CLOUDS BELOW 12,000 FEET WITH NO
SIGNIFICANT WEATHER AND/OR OBSTRUCTION TO VISIBILITY.

MIZ047>049-052>055-059>063-066>070-074>076-081>083-081300-
SOUTHEAST LOWER MICHIGAN

CITY           SKY/WX    TMP DP  RH WIND       PRES   REMARKS
ADRIAN         CLOUDY    25  19  78 W18       30.07R WCI  11
6HR MIN TEMP:  25; 6HR MAX TEMP:  28;

ALMA           CLOUDY    26  16  66 W16G24    30.00S WCI  14
ANN ARBOR      CLOUDY    27  18  69 W22G29    30.02R WCI  13
BAD AXE        CLOUDY    26  16  66 W14G25    29.94S WCI  14
6HR MIN TEMP:  26; 6HR MAX TEMP:  31;

DETROIT CITY   CLOUDY    28  19  69 W16       30.01S WCI  16
6HR MIN TEMP:  28; 6HR MAX TEMP:  31; 6HR PCP: TRACE;

DETROIT        FLURRIES  28  19  69 W18G24    30.03S WCI  15
6HR MIN TEMP:  28; 6HR MAX TEMP:  31; 6HR PCP: TRACE;

FLINT          FLURRIES  27  19  72 W20G25    29.99R WCI  13
6HR MIN TEMP:  27; 6HR MAX TEMP:  31; 6HR PCP: TRACE;

GROSSE ILE     CLOUDY    28  19  68 W12G22    30.03R WCI  18
6HR MIN TEMP:  28; 6HR MAX TEMP:  31;

HILLSDALE      CLOUDY    23  18  80 W14G24    30.03S WCI  11
HOWELL         CLOUDY    27  18  71 W24       30.00R WCI  12
6HR MIN TEMP:  27; 6HR MAX TEMP:  30;


CITY           SKY/WX    TMP DP  RH WIND       PRES   REMARKS
JACKSON        FLURRIES  26  17  68 W13G25    30.02R WCI  15
6HR MIN TEMP:  26; 6HR MAX TEMP:  28; 6HR PCP: TRACE;

LANSING        FLURRIES  27  16  63 W26G32    30.01S WCI  12
6HR MIN TEMP:  26; 6HR MAX TEMP:  29; 6HR PCP: TRACE;

MASON          CLOUDY    27  20  76 W14G24    30.01S WCI  15
MONROE         CLOUDY    28  20  72 W17G25    30.04S WCI  16
MT. CLEMENS    FLURRIES  28  19  69 W15       29.98R WCI  17
6HR MIN TEMP:  29; 6HR MAX TEMP:  32; 6HR PCP: TRACE;

PONTIAC        FLURRIES  27  19  72 W17       29.97S WCI  14
6HR MIN TEMP:  26; 6HR MAX TEMP:  30; 6HR PCP: TRACE;

PORT HOPE        N/A     28  18  66 W8G20     29.91R WCI  20
6HR MIN TEMP:  27; 6HR MAX TEMP:  32;

PORT HURON     CLOUDY    28  19  69 W10       29.98S WCI  19
TRI CITIES     CLOUDY    26  17  68 W22G31    29.98R WCI  12
6HR MIN TEMP:  26; 6HR MAX TEMP:  30; 6HR PCP: TRACE;

YPSILANTI      CLOUDY    29  19  66 W18       30.03R WCI  16
6HR MIN TEMP:  29; 6HR MAX TEMP:  31;

$$
MIZ043>046-050>051-056>058-064>065-071>073-077>080-081300-
SOUTHWEST LOWER MICHIGAN

CITY           SKY/WX    TMP DP  RH WIND       PRES   REMARKS
BATTLE CREEK   CLOUDY    27  18  69 W22G28    30.04R WCI  13
6HR MIN TEMP:  26; 6HR MAX TEMP:  28; 6HR PCP: TRACE;

BENTON HARBOR  CLOUDY    27  17  66 W24G30    30.11R WCI  12
6HR MIN TEMP:  27; 6HR MAX TEMP:  28;

BIG RAPIDS     LGT SNOW  25  18  76 W14G20    29.96R WCI  13
6HR MIN TEMP:  25; 6HR MAX TEMP:  27;

COLDWATER      CLOUDY    25  19  77 W17       30.07R WCI  11
6HR MIN TEMP:  25; 6HR MAX TEMP:  28;

HOLLAND        LGT SNOW  27  19  72 W20G30    30.06R WCI  13
6HR MIN TEMP:  27; 6HR MAX TEMP:  28; 6HR PCP: TRACE;

GRAND RAPIDS   FLURRIES  26  17  68 W17       30.03R WCI  13
6HR MIN TEMP:  26; 6HR MAX TEMP:  27; 6HR PCP: TRACE;

KALAMAZOO      CLOUDY    27  16  63 W17G25    30.06R WCI  14
6HR MIN TEMP:  27; 6HR MAX TEMP:  28;

MARSHALL       CLOUDY    27  19  73 W13G22    30.03S WCI  16
6HR MIN TEMP:  26; 6HR MAX TEMP:  28;

MOUNT PLEASANT FLURRIES  25  17  73 W10       29.97S WCI  15
6HR MIN TEMP:  25; 6HR MAX TEMP:  27;

MUSKEGON       FLURRIES  27  18  69 W20G26    30.04R WCI  13
6HR MIN TEMP:  26; 6HR MAX TEMP:  27; 6HR PCP:  0.01;

STURGIS        CLOUDY    24  17  75 W14G23    30.08R WCI  11
6HR MIN TEMP:  23; 6HR MAX TEMP:  27;

$$
MIZ016>042-081300-
NORTHERN LOWER MICHIGAN

CITY           SKY/WX    TMP DP  RH WIND       PRES   REMARKS
ALPENA         CLOUDY    27  16  63 SW14G22   29.85S WCI  16
6HR MIN TEMP:  27; 6HR MAX TEMP:  29; 6HR PCP: TRACE;

BEAVER ISLAND  LGT SNOW  27  23  86 W16G24    29.85R WCI  14
6HR MIN TEMP:  26; 6HR MAX TEMP:  28;

BELLAIRE       FLURRIES  26  21  79 SW9       29.90S WCI  17
6HR MIN TEMP:  26; 6HR MAX TEMP:  28;

CADILLAC       FLURRIES  22  17  79 W10G17    29.90R WCI  11
CHARLEVOIX     LGT SNOW  28  23  81 W21G28    29.89R WCI  15
6HR MIN TEMP:  27; 6HR MAX TEMP:  29;

GAYLORD        CLOUDY    24  16  71 SW16      29.83S WCI  11
6HR MIN TEMP:  24; 6HR MAX TEMP:  26; 6HR PCP: TRACE;

HOUGHTON LAKE  LGT SNOW  23  18  81 W13       29.90S WCI  11
6HR MIN TEMP:  23; 6HR MAX TEMP:  25; 6HR PCP: TRACE;

MANISTEE       LGT SNOW  24  19  81 W21       29.98R WCI   9
OSCODA         CLOUDY    27  17  65 MISG      29.90S
6HR MIN TEMP:  27; 6HR MAX TEMP:  30;

PELLSTON       LGT SNOW  27  22  81 W13       29.83R WCI  16
6HR MIN TEMP:  26; 6HR MAX TEMP:  29; 6HR PCP:  0.09;

TRAVERSE CITY  FLURRIES  25  17  72 W13       29.92R WCI  14
6HR MIN TEMP:  25; 6HR MAX TEMP:  28; 6HR PCP: TRACE;

LUDINGTON      FLURRIES  24  17  73 W15G25    30.01R WCI  11
6HR MIN TEMP:  24; 6HR MAX TEMP:  26;

$$
MIZ007>008-015-081300-
EASTERN UPPER MICHIGAN

CITY           SKY/WX    TMP DP  RH WIND       PRES   REMARKS
KINROSS        FLURRIES  21  18  88 W10       29.78R WCI  10
6HR MIN TEMP:  21; 6HR MAX TEMP:  23; 6HR PCP: TRACE;

MACKINAC ISLAN LGT SNOW  27  25  93 W22G29    29.80S WCI  13
6HR MIN TEMP:  27; 6HR MAX TEMP:  28;

NEWBERRY       FLURRIES  21  18  89 W16       29.79R WCI   7
6HR MIN TEMP:  21; 6HR MAX TEMP:  22;

S. S. MARIE    LGT SNOW  24  19  81 SW13      29.76R WCI  12
6HR MIN TEMP:  23; 6HR MAX TEMP:  24; 6HR PCP:  0.02;

$$
MIZ004>006-011>014-085-081300-
CENTRAL UPPER MICHIGAN

CITY           SKY/WX    TMP DP  RH WIND       PRES   REMARKS
MANISTIQUE     CLOUDY    21  17  83 W10G21    29.84S WCI  10
6HR MIN TEMP:  21; 6HR MAX TEMP:  22;

ESCANABA       FLURRIES  21  13  71 W17G24    29.90R WCI   7
6HR MIN TEMP:  21; 6HR MAX TEMP:  22; 6HR PCP: TRACE;

MENOMINEE      FLURRIES  19  11  70 W13G22    29.98  WCI   6
6HR MIN TEMP:  19; 6HR MAX TEMP:  22;

$$
MIZ001>003-009>011-084-081300-
WESTERN UPPER MICHIGAN

CITY           SKY/WX    TMP DP  RH WIND       PRES   REMARKS
IRON MOUNTAIN  FLURRIES  18  11  74 W8        29.90R WCI   8
6HR MIN TEMP:  18; 6HR MAX TEMP:  20; 6HR PCP: TRACE;

HOUGHTON       FLURRIES  27  19  72 N20G26    29.89R WCI  13
6HR MIN TEMP:  26; 6HR MAX TEMP:  28; 6HR PCP:  0.04;

IRONWOOD       LGT SNOW  25  21  85 NW13G25   29.98R FOG     WCI  14
6HR MIN TEMP:  17; 6HR MAX TEMP:  25; 6HR PCP: TRACE;

$$

ABBREVIATIONS USED IN REMARKS
   TC - TEMPERATURE IN CELSIUS
  WCI - WIND CHILL INDEX
   HX - HEAT INDEX
  VSB - VISIBILITY





USA.gov is the U.S. government's official web portal to all federal, state and local government web resources and services.